Погода в Касне

Россия / Смоленская область     55°23′52″N   34°19′08″E
темп.,
°C
ветер,
м/с
пор.,
м/с
влажн.,
%
обл.,
%
осадки,
мм/ч
давл.,
гПа
погр.,
м
10 мая, пн
пн1000:00+3сз34710 0.0 102460
03:00+2ссз22725 0.0 102621
06:00+2ссз11703 0.0 102818
09:00+9ссз11504 0.0 1028371
12:00+12ссв22390 0.0 10281219
15:00+14св22395 0.0 10271372
18:00+13ссв23475 0.0 10271023
21:00+7в22700 0.0 102817
11 мая, вт
вт1100:00+6в22681 0.0 102822
03:00+4св227517 0.0 102914
06:00+4всв257720 0.0 1029106
09:00+11всв465680 0.0 1029465
12:00+15всв564589 0.0 1027901
15:00+16всв5647100 0.0 1026939
18:00+16всв4762100 0.0 1025675
21:00+11всв398562 0.0 1026148
12 мая, ср
ср1200:00+10в39940 0.0 1026167
03:00+10ююв269867 0.0 1026125
06:00+9ююв2292100 0.0 102661
09:00+13вюв236344 0.0 1026524
12:00+14всв2473100 0.1 1023670
15:00+18всв61071100 1.5 10191347
18:00+14в71590100 2.4 10171089
21:00+8юв5119550 3.6 1019658
13 мая, чт
чт1300:00+6юв399727 0.0 1021304
03:00+5в4119751 0.0 1020300
06:00+7вюв413949 0.0 1019506
09:00+12юв61181100 0.0 10191027
12:00+13юв6107594 0.6 10181202
15:00+15ююв586342 0.8 10181455
18:00+16ююв3766100 0.1 10171285
21:00+11юв38885 0.1 1017141
14 мая, пт
пт1400:00+9юв3894100 0.0 1018150
03:00+9вюв3896100 0.0 1017143
06:00+11вюв31089100 0.0 1016271
09:00+17вюв61176100 0.0 1015754
12:00+20юв7106381 0.3 10131540
15:00+19вюв5127877 1.8 10121136
18:00+17юв61388100 7.2 1010627
21:00+14ююв4129613 14.3 1010465